COSMOS 1275 DEB

Satellite information

Favourite Embed

Satellite Type and Status

DEBRISIN ORBIT

Key statistics

Satellite COSMOS 1275 DEB at a glance.

Uptime

16213

Days in orbit

Revolutions

≈ 13.9

Per day

Orbit

LEO

Low Earth Orbit

Inclination

83.0

Latest

Satellite identification and parameters

Extended collection of information and parameters for COSMOS 1275 DEB.

Object identification

Identified? True

Debris? True

Object name: COSMOS 1275 DEB

International designator: 1981-053L

Object number (NORAD): 12656

Object ID (CCSDS): 12656

Country: COMMONWEALTH OF INDEPENDENT STATES (CIS)

Current information (Y/N): Y

RCS size: MEDIUM

Orbital parameters

Period: 103.43 minutes

Inclination: 82.9613 deg

SMA: 7298.9 km

Apoapsis: 940.35 km

Periapsis: 901.179 km

RAAN: 232.3194 deg

Eccentricy: 0.00268334

Argument of periapsis: 41.8012 deg

Mean anomaly: 347.7146 deg

Mean motion: 13.92248175 rev/day

Mean motion (dot): 0.0000102 rev/day2

B* drag term: 0.00078138968 1/REarth

Two-line elements (TLE)

Creation date: Oct. 24, 2025, 2:48 a.m.

Reference frame: TEME

Reference center: EARTH

Epoch: Oct. 23, 2025, 7:28 p.m. UTC

TLE line 0: 0 COSMOS 1275 DEB

TLE line 1: 1 12656U 81053L 25296.81175791 .00001020 00000-0 78139-3 0 9994

TLE line 2: 2 12656 82.9613 232.3194 0026833 41.8012 347.7146 13.92248175235704

Live tracking on map

Real-time ground track for satellite COSMOS 1275 DEB.

In-orbit conjunctions

A list of the most updated potential collisions computed for object COSMOS 1275 DEB.

Target Orbit TCA Probability of collision Miss distance Type
SECOR 1B LEO 2025-09-30 02:26:55 0.0001025406 605.0 (m) PAYLOAD
THORAD AGENA D DEB SSO 2025-04-24 06:17:51 0.0001598533 230.0 (m) DEBRIS
COSMOS 1275 DEB LEO 2024-08-16 14:26:22 0.0007004489 87.0 (m) DEBRIS

Associated space launch

Navigation satellite providing location information for the Tsiklon-B navigation system

COSMOS 1275 DEB was lifted into orbit during the mission ‘Kosmos-3M | Parus 27’, on board a Kosmos-3M space rocket.

The launch took place on June 4, 1981, 3:41 p.m. from 132/2.

For more information about the launch, click the button.

Launch to space Kosmos-3M | Parus 27
Kosmos-3M | Parus 27

Agency: N/A

Status: Launch Successful

Launch date: June 4, 1981, 3:41 p.m. UTC

Rocket: Kosmos-3M

Launch pad: 132/2

Location: Plesetsk Cosmodrome, Russian Federation

...

Latest news about this satellite

There are no fresh news available about this satellite. Check back as we update our databases every day.


Newsletter sign-up

Weekly statistics, charts and insights to help you stay on top of the space industry.